User: anonymous   Login
Location: Unspecified
(0.0000°N, 0.0000°E)
Time: 03:00:59
(UTC+00:00)
Language:

XW-2A - Orbit

View from above orbital plane
View from above orbital plane
View from above satellite
View from above satellite

Ground track
Ground track

The orbit data is extracted from the following two-line orbital elements,

1 40903U 15049E   18147.84516630  .00001768  00000-0  45646-4 0  9990
2 40903  97.3857 182.4972 0016004 102.5266 257.7771 15.40427399150672
Epoch (UTC): 27 May 2018 20:17:02
Eccentricity: 0.0016004
inclination: 97.3857°
perigee height: 434 km
apogee height: 456 km
right ascension of ascending node: 182.4972°
argument of perigee: 102.5266°
revolutions per day: 15.40427399
mean anomaly at epoch: 257.7771°
orbit number at epoch: 15067

The dashed part of the orbit path shows where the satellite is in the earth's shadow,  

DLR